Hourly Data Report for September 01, 2017

All times are specified in Local Standard Time (LST). Add 1 hour to adjust for Daylight Saving Time where and when it is observed.

KAMLOOPS A
BRITISH COLUMBIA

50°42'09.000" N
120°26'55.000" W
345.30 m
1163781
71887
YKA

Download Data

Hourly Data (September 2017)
Hourly Data Report for September 1, 2017
Temp Definition
°C
Dew Point Temp Definition
°C
Rel Hum Definition
%
Wind Dir Definition
10's deg

Wind Spd Definition
km/h
Visibility Definition
km
Stn Press Definition
kPa
Hmdx Definition


Wind Chill Definition


Weather Definition


TIME
00:00 Legend Double Dagger 17.2 7.6 53 35 5 8.1 97.66     Smoke
01:00 Legend Double Dagger 17.2 7.1 51 20 3 8.1 97.66     Smoke
02:00 Legend Double Dagger 16.7 7.7 55 30 3 8.1 97.70     Smoke
03:00 Legend Double Dagger 17.1 9.1 59 6 5 8.1 97.68     Smoke
04:00 Legend Double Dagger 17.1 8.4 56 1 5 9.7 97.68     Smoke
05:00 Legend Double Dagger 15.9 8.6 61 26 4 16.1 97.72     LegendNANA
06:00 Legend Double Dagger 14.4 7.3 62 8 6 16.1 97.80     LegendNANA
07:00 Legend Double Dagger 17.9 8.4 54 4 4 9.7 97.85     Smoke
08:00 Legend Double Dagger 18.5 8.0 50 22 5 9.7 97.85     Smoke
09:00 Legend Double Dagger 20.6 9.3 48 27 7 16.1 97.84     LegendNANA
10:00 Legend Double Dagger 22.4 8.2 40 27 9 16.1 97.78     Mostly Cloudy
11:00 Legend Double Dagger 25.1 8.1 33 19 4 24.1 97.66 26   LegendNANA
12:00 Legend Double Dagger 27.3 7.0 27 16 5 64.4 97.60 27   LegendNANA
13:00 Legend Double Dagger 29.4 5.9 22 22 5 64.4 97.53 29   Mainly Clear
14:00 Legend Double Dagger 29.7 5.4 21 26 8 64.4 97.46 29   LegendNANA
15:00 Legend Double Dagger 30.4 7.0 23 27 12 64.4 97.41 30   LegendNANA
16:00 Legend Double Dagger 30.8 5.7 20 23 8 64.4 97.33 30   Mainly Clear
17:00 Legend Double Dagger 30.5 8.8 25 21 5 64.4 97.31 31   LegendNANA
18:00 Legend Double Dagger 29.6 6.7 23 35 4 64.4 97.27 29   LegendNANA
19:00 Legend Double Dagger 24.6 8.1 35 27 5 64.4 97.27 25   Mainly Clear
20:00 Legend Double Dagger 24.8 7.4 32 10 11 64.4 97.33 25   LegendNANA
21:00 Legend Double Dagger 24.2 6.8 32 10 14 64.4 97.35     LegendNANA
22:00 Legend Double Dagger 22.5 7.5 38 11 10 64.4 97.41     Mainly Clear
23:00 Legend Double Dagger 20.9 7.1 40 11 13 64.4 97.45     LegendNANA

Notes on Data Quality.

Legend

  • E = Estimated
  • M = Missing
  • NA = Not Available
  • ‡ = Partner data that is not subject to review by the National Climate Archives
Date modified: